Tracking 19909 objects as of 21-Oct-2019
HD Live streaming from Space Station
objects crossing your sky now

SL-8 DEB

Track SL-8 DEB now!
10-day predictions


NORAD ID: 21943
Int'l Code: 1991-009CE
Perigee: 1,493.1 km
Apogee: 1,713.2 km
Inclination: 74.0 °
Period: 118.1 minutes
Semi major axis: 7974 km
RCS: 0.0463 m2 (small)
Launch date: February 12, 1991
Source: Commonwealth of Independent States (former USSR) (CIS)
Launch site: PLESETSK MISSILE AND SPACE COMPLEX (PKMTR)

Note: This is SATELLITE DEBRIS
aabbcc
Your satellite tracking list
Your tracking list is empty




NASA's NSSDC Master Catalog

Two Line Element Set (TLE):
1 21943U 91009CE  19293.51013576 -.00000043 +00000-0 -26136-3 0  9990
2 21943 073.9527 312.0618 0138020 262.6655 252.2812 12.19199903273638
Source of the keplerian elements: AFSPC